Volver al catálogo

CAKRA-1

ActivoCienciaSSO
NORAD 60510·PAYLOAD·🇮🇩 Indonesia
Este nombre de satélite aún no ha sido confirmado por fuentes oficiales.

Lanzado Aug 16, 2024 desde Vandenberg Space Force Base

Loading…

Próximos Pases (próximas 24 horas)

TLE

ActualizadoSource: Space-Track

Época: Sep 14, 2026, 04:35 UTC

1 60510U 24149AU  26257.19155545  .00011946  00000-0  27735-3 0  9997
2 60510  97.3684 341.7471 0002751 350.1839   9.9355 15.42518674116026

Sigue CAKRA-1 en tiempo real con AllMySat

Download on the App Store